Погода в Синей Осоке

Россия / Ивановская область     56°43′08″N   40°39′55″E
темп.,
°C
ветер,
м/с
пор.,
м/с
влажн.,
%
обл.,
%
осадки,
мм/ч
давл.,
гПа
погр.,
м
25 февраля, чт
чт2500:00−16ю41094100 0.5 1028450
03:00−15ю4995100 1.5 1025480
06:00−14ю51194100 2.2 1018475
09:00−12ююз51194100 4.5 1013474
12:00−8ю3595100 1.3 1011236
15:00−4юв1196100 2.2 101085
18:00−3с1198100 0.3 101153
21:00−1з1499100 0.5 1011136
26 февраля, пт
пт2600:00+1з3898100 0.0 1011322
03:000зюз2399100 0.1 1010125
06:00+1ю2299100 1.7 100882
09:00+1ююз2699100 2.9 1005178
12:00+2юз41199100 3.2 1001427
15:00+2зюз51599100 4.9 998753
18:00+2з51494100 0.4 996857
21:00+1з61297100 0.5 996945
27 февраля, сб
сб2700:000з61297100 0.8 994943
03:000зсз61397100 1.6 995969
06:00−5сз51192100 1.1 996615
09:00−10ссз51090100 1.2 999588
12:00−10с5988100 0.2 1002658
15:00−10с51087100 0.3 1006650
18:00−11с41091100 0.1 1008625
21:00−13с3993100 0.1 1011404
28 февраля, вс
вс2800:00−15ссз379579 0.0 1012238
03:00−16ссз379542 0.0 1015244
06:00−17ссз27962 0.0 1016235
09:00−15с369221 0.0 1017290
12:00−11с368995 0.0 1018456
15:00−9ссз368897 0.1 1019563
18:00−9ссз2793100 0.1 1020420
21:00−12ссз229791 0.1 102222
1 марта, пн
пн100:00−13ссз119786 0.0 102420
03:00−11з129793 0.1 102421
06:00−9зюз2397100 0.1 102487
09:00−6юз3794100 0.1 1022276
12:00−4зюз4894100 0.0 1020362
15:00−1з51095100 0.3 1017613
18:000з51297100 0.2 1014688
21:00+1з51297100 0.6 1011767